Location: Azul
(36.7830°S, 59.8500°W)
Time: 23:56:59
(UTC-03:00)

TIGRISAT - Pass Details

Date: 23 October 2021
Orbit: 603 x 689 km, 97.7° (Epoch: 27 November)

Event Time Altitude Azimuth Distance (km) Brightness Sun altitude
Rises 19:44:27 0° 356° (N) 2,848 ? -4.8°
Reaches altitude 10° 19:46:42 10° 348° (NNW) 1,953 ? -5.2°
Maximum altitude 19:50:42 40° 278° (W) 908 ? -6.0°
Drops below altitude 10° 19:54:46 10° 208° (SSW) 1,992 ? -6.8°
Sets 19:57:06 0° 200° (SSW) 2,914 ? -7.2°
